Flag for U.S.A. Weather past 2 weeks in Daytona Beach, Florida, U.S.A.

Now
70 °F

Cloudy.


Feels Like: 71 °F
Forecast: 60 / 74 °F
Wind: 5 mph from Northeast

Location: Daytona Beach Regional Airport

Current Time: Dec 21, 2014 at 5:21:55 PM

Latest Report: Dec 21, 2014 at 3:53 PM


Visibility: 10 mi

Pressure: 30.03 "Hg

Humidity: 79%

Dew point: 63 °F

Location of Daytona BeachLocation

Historic Weather in Daytona Beach — Graph

°F

Daytona Beach temperature yesterday

Maximum temperature yesterday: 76 °F (at 1:53 PM)
Minimum temperature yesterday: 54 °F (at 12:53 AM)
Average temperature yesterday: 64 °F

Past Weeks' High & Low Weather Summary

 TemperatureHumidityPressure
High76 °F (Dec 20, 1:53 PM)100% (Dec 7, 4:53 AM)30.28 "Hg (Dec 7, 4:53 AM)
Low40 °F (Dec 11, 5:53 AM)26% (Dec 13, 1:53 PM)29.99 "Hg (Dec 9, 4:53 PM)
Average57 °F76%30.12 "Hg
* Reported Dec 6 3:53 PM — Dec 21 3:53 PM, Daytona Beach, Weather by CustomWeather, © 2014

Note: Actual official high and low records may vary slightly from our data, if they occured in-between our weather recording intervals... More about our weather records

Advertising

Daytona Beach weather history for previous 24 hours

 ConditionsComfort  
Time TempWeatherWind HumidityBarometerVisibility
3:53 PM
Dec 21
70 °FCloudy.5 mph79%30.03 "Hg10 mi
2:53 PM72 °FMostly cloudy.7 mph73%30.02 "Hg9 mi
1:53 PM73 °FPartly sunny.8 mph74%30.03 "Hg10 mi
12:53 PM73 °FPartly sunny.8 mph74%30.06 "Hg10 mi
11:53 AM75 °FBroken clouds.3 mph69%30.09 "Hg10 mi
10:53 AM73 °FBroken clouds.5 mph74%30.10 "Hg10 mi
9:53 AM68 °FBroken clouds.6 mph87%30.13 "Hg7 mi
8:53 AM65 °FFog.No wind94%30.10 "Hg5 mi
7:53 AM63 °FFog.No wind93%30.10 "Hg3 mi
6:53 AM62 °FFog.No wind96%30.08 "Hg4 mi
5:53 AM63 °FFog.3 mph93%30.08 "Hg6 mi
4:53 AM64 °FFog.3 mph94%30.08 "Hg6 mi
3:53 AM64 °FPassing clouds.No wind94%30.08 "Hg7 mi
3:02 AM64 °FFog.3 mph94%30.08 "Hg6 mi
2:53 AM64 °FFog.3 mph94%30.08 "Hg6 mi
1:53 AM64 °FPassing clouds.3 mph94%30.08 "Hg7 mi
12:53 AM65 °FPassing clouds.No wind94%30.09 "Hg8 mi
11:53 PM
Dec 20
65 °FOvercast.3 mph91%30.10 "Hg8 mi
10:53 PM65 °FOvercast.3 mph91%30.11 "Hg8 mi
9:53 PM65 °FPassing clouds.No wind94%30.11 "Hg7 mi
8:53 PM64 °FPassing clouds.No wind94%30.10 "Hg8 mi
7:53 PM64 °FPassing clouds.3 mph94%30.10 "Hg9 mi
6:53 PM65 °FPassing clouds.6 mph91%30.10 "Hg10 mi
5:53 PM67 °FPartly cloudy.7 mph85%30.08 "Hg10 mi
Weather by CustomWeather, © 2014

See weather overviewHow to use our weather pages